Terminal Aerodrome Forecast
Issued by NWS Boston, MA

Current Version | Previous Version | Text Only | Print | Product List | Glossary On
Versions: 1 2 3 4 5 6 7 8 9 10 11 12 13 14 15 16 17 18 19 20
000 FTUS41 KBOX 051129 TAFORH TAF KORH 051129Z 0512/0612 VRB03KT 1SM -SN OVC010 FM051700 19004KT 3SM BR VCSH OVC015 FM051800 22004KT P6SM OVC015 FM052100 25007KT P6SM BKN250 FM060300 29008KT P6SM SCT250 FM061100 33006KT P6SM SCT250=

USA.gov is the U.S. government's official web portal to all federal, state and local government web resources and services.